DMSP 5D-2 F13 DEB, 40565

Orbit data source: Space-Track

DMSP 5D-2 F13 DEB, 40565 is space debris in SSO originally from a launch on Fri, 24 Mar 1995 UTC launched from the Air Force Western Test Range (AFWTR). Debris objects in space refer to the collection of defunct objects orbiting the Earth. Examples of debris include non-operational satellites, rocket bodies, and fragments generated from explosions, collisions, or faulty payload assembly.

Loading next visibility...
Identifier
40565, 1995-015DY
Orbit
SSO
Country
Flag of USUS
Related business
Manufacturer
Unknown
Mission
Spacecraft
Bus & Motor
Unknown
Mass
Unknown
Launch date (UTC)
1995-03-24 (31 years ago)
Launch vehicle
Unknown
Launch site
Air Force Western Test Range (AFWTR)
Object type
Payload
Rocket body
Debris
Shape & HBR
Unknown shape, 0.1 m
Radar Cross Section
Medium (>0.1 m² and <1 m²)

Expand to show TLE details & history
Last TLE update: 3 days ago

TLE from 3 days ago
0 DMSP 5D-2 F13 DEB
1 40565U 95015DY  26254.55836803  .00001152  00000-0  90003-3 0  9991
2 40565  98.8012   1.1794 0165447  24.3238 336.5618 13.87891197576072
Epoch: 2026-09-11T13:24Z
TLE epoch observation values (Epoch: 2026-09-11T13:24:02.997Z)
Latitude
-0.00001°
Longitude
169.58692°
Altitude
828.175 km
Speed
7.495 km/s
True Right ascension
00h 04m 43s
True Declination
0° 00' 00"
Sunlit
Object was in full shadow at epoch
Visualization orbit readout
Latitude
Unknown
Longitude
Unknown
Altitude
Unknown
Speed
Unknown
Apparent Right ascension
Unknown
Apparent Declination
Unknown
Sunlit
N/A
Visualization observer readout
Local Sidereal Time
03:33:00
Azimuth
Unknown
Elevation
Unknown
Doppler factor
Unknown
Orbital elements
Apogee altitude
1,054.2 km
Perigee altitude
812.271 km
Semi-major axis
7,311.372 km
Eccentricity
0.01654
Inclination
98.8012°
RAAN
1.1794°
Arg. of periapsis
24.3238°
True anomaly
335.79314°
Mean anomaly
336.5618°
Eccentric anomaly
336.17894°
Mean motion
3.47172 °/min
Orbital period
103.69 mins
BSTAR
0.00090003
Loading maneuver chart data...
Computing Atmospheric mass density...

Documentation

Showing up to 5 results
|